This is the latest recevied weather packets stored in our database for station/object IV3ONZ. If no packets are shown the sender has not sent any weather packets the latest 10 day(s).
| Time | Temp. | Humidity | Pressure | Rain* | Wind** | Luminosity | Snow |
|---|---|---|---|---|---|---|---|
| 1778137637 | 17.78° C | 82% | 1015.7 hPa | 0 mm | - | 615 W/m² | - |
| 1778135704 | 17.78° C | 78% | 1015.3 hPa | 0 mm | - | 346 W/m² | - |
| 1778134637 | 17.78° C | 82% | 1015 hPa | 0 mm | - | 187 W/m² | - |
| 1778133605 | 17.22° C | 84% | 1015.3 hPa | 0 mm | - | 298 W/m² | - |
| 1778130304 | 16.11° C | 88% | 1014.6 hPa | 0 mm | - | 61 W/m² | - |
| 1778129104 | 16.11° C | 89% | 1014.5 hPa | 0 mm | - | 36 W/m² | - |
| 1778128204 | 15.56° C | 90% | 1014.5 hPa | 0 mm | - | 15 W/m² | - |
| 1778127304 | 15.56° C | 90% | 1014.3 hPa | 0 mm | - | 12 W/m² | - |
| 1778125933 | 15.56° C | 91% | 1014.4 hPa | 0 mm | - | 4 W/m² | - |
| 1778124604 | 15.56° C | 91% | 1014.3 hPa | 0 mm | - | 0 W/m² | - |
| 1778123235 | 15.56° C | 91% | 1014 hPa | 0 mm | - | 0 W/m² | - |
| 1778121904 | 15.56° C | 90% | 1014 hPa | 0 mm | - | 0 W/m² | - |
| 1778120404 | 16.11° C | 88% | 1014 hPa | 0 mm | - | 0 W/m² | - |
| 1778119635 | 16.11° C | 88% | 1014.2 hPa | 0 mm | - | 0 W/m² | - |
| 1778118135 | 16.11° C | 89% | 1014.1 hPa | 0 mm | - | 0 W/m² | - |
| 1778115304 | 16.11° C | 86% | 1014.1 hPa | 0 mm | - | 0 W/m² | - |
| 1778111704 | 16.11° C | 86% | 1014.2 hPa | 0 mm | - | 0 W/m² | - |
| 1778111233 | 16.11° C | 86% | 1014.3 hPa | 0 mm | - | 0 W/m² | - |
| 1778109604 | 15.56° C | 87% | 1014.5 hPa | 0 mm | - | 0 W/m² | - |
| 1778107803 | 15° C | 87% | 1014.6 hPa | 0 mm | - | 0 W/m² | - |
| 1778104804 | 15° C | 86% | 1014.4 hPa | 0 mm | - | 0 W/m² | - |
| 1778103304 | 15.56° C | 83% | 1014.3 hPa | 0 mm | - | 0 W/m² | - |
| 1778102704 | 15.56° C | 83% | 1014.3 hPa | 0 mm | - | 0 W/m² | - |
| 1778100004 | 16.11° C | 81% | 1014.4 hPa | 0 mm | - | 0 W/m² | - |
| 1778099836 | 16.11° C | 81% | 1014.5 hPa | 0 mm | - | 0 W/m² | - |
* Rain latest hour (hover to see other rain measurements)
** Current wind speed in m/s (hover to see current wind gust speed)